| time (UTC) | temp F | wind direction | speed MPH | gust MPH | rain 1hr in | rain 24hr in | rain mn in | humidity % | barometer mb |
| 20260904103124 | 84 | 7 | 4.0 | 8.0 | 0.00 | 0.05 | 0.00 | 59 | 1012.8 |
| 20260904102123 | 84 | 24 | 4.0 | 6.0 | 0.00 | 0.05 | 0.00 | 59 | 1012.7 |
| 20260904101123 | 84 | 14 | 3.0 | 6.0 | 0.00 | 0.05 | 0.00 | 59 | 1012.6 |
| 20260904100124 | 84 | 16 | 4.0 | 9.0 | 0.00 | 0.05 | 0.00 | 58 | 1012.6 |
| 20260904095123 | 85 | 89 | 5.0 | 9.0 | 0.00 | 0.05 | 0.00 | 58 | 1012.7 |
| 20260904094123 | 85 | 60 | 4.0 | 8.0 | 0.00 | 0.05 | 0.00 | 59 | 1012.6 |
| 20260904093143 | 85 | 34 | 5.0 | 8.0 | 0.00 | 0.05 | 0.00 | 58 | 1012.6 |
| 20260904092123 | 85 | 11 | 4.0 | 8.0 | 0.00 | 0.05 | 0.00 | 58 | 1012.5 |
| 20260904091123 | 85 | 22 | 4.0 | 8.0 | 0.00 | 0.05 | 0.00 | 58 | 1012.5 |
| 20260904090143 | 85 | 18 | 5.0 | 10.0 | 0.00 | 0.05 | 0.00 | 58 | 1012.5 |
| 20260904085123 | 85 | 43 | 5.0 | 9.0 | 0.00 | 0.05 | 0.00 | 58 | 1012.5 |
| 20260904084143 | 85 | 21 | 6.0 | 10.0 | 0.00 | 0.05 | 0.00 | 58 | 1012.6 |
| 20260904083143 | 85 | 13 | 5.0 | 10.0 | 0.00 | 0.05 | 0.00 | 57 | 1012.6 |
| 20260904082145 | 85 | 10 | 6.0 | 11.0 | 0.00 | 0.05 | 0.00 | 57 | 1012.8 |
| 20260904081122 | 85 | 9 | 9.0 | 13.0 | 0.00 | 0.05 | 0.00 | 57 | 1012.8 |
| 20260904080123 | 85 | 8 | 6.0 | 12.0 | 0.00 | 0.05 | 0.00 | 57 | 1012.8 |
| 20260904075122 | 86 | 11 | 6.0 | 12.0 | 0.00 | 0.05 | 0.00 | 57 | 1012.7 |
| 20260904074124 | 86 | 12 | 8.0 | 12.0 | 0.00 | 0.05 | 0.00 | 56 | 1012.7 |
| 20260904073122 | 86 | 8 | 8.0 | 12.0 | 0.00 | 0.05 | 0.00 | 56 | 1012.7 |
| 20260904072122 | 86 | 1 | 9.0 | 14.0 | 0.00 | 0.05 | 0.00 | 55 | 1012.7 |
| 20260904071122 | 87 | 2 | 9.0 | 14.0 | 0.00 | 0.05 | 0.00 | 55 | 1012.6 |
| 20260904070122 | 87 | 3 | 9.0 | 14.0 | 0.00 | 0.05 | 0.00 | 54 | 1012.6 |
| 20260904065124 | 87 | 68 | 8.0 | 13.0 | 0.00 | 0.05 | 0.05 | 53 | 1012.6 |
| 20260904064145 | 87 | 5 | 9.0 | 16.0 | 0.00 | 0.05 | 0.05 | 53 | 1012.5 |
| 20260904063143 | 87 | 9 | 7.0 | 14.0 | 0.00 | 0.05 | 0.05 | 53 | 1012.5 |
| 20260904062123 | 87 | 8 | 7.0 | 11.0 | 0.00 | 0.05 | 0.05 | 53 | 1012.3 |
| 20260904061122 | 88 | 9 | 9.0 | 13.0 | 0.00 | 0.05 | 0.05 | 52 | 1012.2 |
| 20260904060143 | 88 | 11 | 10.0 | 15.0 | 0.00 | 0.05 | 0.05 | 52 | 1012.2 |
| 20260904055143 | 88 | 23 | 8.0 | 14.0 | 0.00 | 0.05 | 0.05 | 51 | 1012.1 |
| 20260904054124 | 88 | 27 | 10.0 | 16.0 | 0.00 | 0.05 | 0.05 | 50 | 1011.9 |
| 20260904053122 | 88 | 46 | 8.0 | 14.0 | 0.00 | 0.05 | 0.05 | 50 | 1012.1 |
| 20260904052122 | 88 | 72 | 6.0 | 12.0 | 0.00 | 0.05 | 0.05 | 50 | 1012.0 |
| 20260904051122 | 88 | 74 | 5.0 | 10.0 | 0.00 | 0.05 | 0.05 | 50 | 1012.0 |
| 20260904050122 | 88 | 87 | 5.0 | 11.0 | 0.00 | 0.05 | 0.05 | 50 | 1011.9 |
| 20260904045123 | 88 | 77 | 6.0 | 11.0 | 0.00 | 0.05 | 0.05 | 49 | 1011.8 |
| 20260904044123 | 89 | 33 | 7.0 | 15.0 | 0.00 | 0.05 | 0.05 | 47 | 1011.9 |
| 20260904043123 | 89 | 6 | 8.0 | 14.0 | 0.00 | 0.05 | 0.05 | 46 | 1011.7 |
| 20260904042122 | 89 | 137 | 6.0 | 13.0 | 0.00 | 0.05 | 0.05 | 46 | 1011.5 |
| 20260904041122 | 87 | 86 | 0.0 | 1.0 | 0.00 | 0.05 | 0.05 | 59 | 1011.5 |
| 20260904040122 | 86 | 84 | 3.0 | 4.0 | 0.00 | 0.05 | 0.05 | 62 | 1011.3 |
| 20260904035123 | 86 | 77 | 3.0 | 3.0 | 0.00 | 0.05 | 0.05 | 63 | 1011.3 |
| 20260904034122 | 86 | 86 | 2.0 | 4.0 | 0.00 | 0.05 | 0.05 | 61 | 1011.1 |
| 20260904033143 | 87 | 86 | 0.0 | 0.0 | 0.00 | 0.05 | 0.05 | 55 | 1011.1 |
| 20260904032123 | 88 | 85 | 1.0 | 5.0 | 0.00 | 0.05 | 0.05 | 51 | 1010.9 |
| 20260904031122 | 87 | 69 | 5.0 | 9.0 | 0.00 | 0.05 | 0.05 | 54 | 1010.8 |
| 20260904030123 | 86 | 72 | 3.0 | 5.0 | 0.00 | 0.05 | 0.05 | 60 | 1010.8 |
| 20260904025122 | 86 | 169 | 3.0 | 5.0 | 0.02 | 0.05 | 0.05 | 61 | 1010.5 |
| 20260904024122 | 86 | 170 | 0.0 | 2.0 | 0.05 | 0.05 | 0.05 | 60 | 1010.5 |
| 20260904023124 | 86 | 170 | 5.0 | 7.0 | 0.05 | 0.05 | 0.05 | 57 | 1010.6 |
| 20260904022122 | 84 | 291 | 2.0 | 6.0 | 0.05 | 0.05 | 0.05 | 62 | 1010.4 |
| 20260904021122 | 83 | 303 | 1.0 | 2.0 | 0.05 | 0.05 | 0.05 | 61 | 1010.4 |
| 20260904020144 | 84 | 333 | 14.0 | 22.0 | 0.05 | 0.05 | 0.05 | 57 | 1010.9 |
| 20260904015145 | 90 | 340 | 14.0 | 23.0 | 0.01 | 0.01 | 0.01 | 54 | 1010.8 |
| 20260904014122 | 96 | 344 | 9.0 | 24.0 | 0.00 | 0.00 | 0.00 | 38 | 1010.5 |
| 20260904013122 | 96 | 73 | 6.0 | 11.0 | 0.00 | 0.00 | 0.00 | 33 | 1010.0 |
| 20260904012122 | 96 | 72 | 7.0 | 11.0 | 0.00 | 0.00 | 0.00 | 33 | 1010.1 |
| 20260904011122 | 96 | 103 | 4.0 | 7.0 | 0.00 | 0.00 | 0.00 | 33 | 1010.1 |
| 20260904010122 | 96 | 355 | 5.0 | 8.0 | 0.00 | 0.00 | 0.00 | 33 | 1009.9 |
| 20260904005143 | 96 | 78 | 4.0 | 8.0 | 0.00 | 0.00 | 0.00 | 32 | 1009.9 |
| 20260904004123 | 97 | 355 | 5.0 | 9.0 | 0.00 | 0.00 | 0.00 | 32 | 1010.1 |
| 20260904003124 | 97 | 64 | 3.0 | 8.0 | 0.00 | 0.00 | 0.00 | 31 | 1009.8 |
| 20260904002122 | 97 | 132 | 4.0 | 7.0 | 0.00 | 0.00 | 0.00 | 31 | 1009.9 |
| 20260904001144 | 97 | 360 | 2.0 | 3.0 | 0.00 | 0.00 | 0.00 | 32 | 1009.9 |
| 20260904000122 | 97 | 303 | 7.0 | 14.0 | 0.00 | 0.00 | 0.00 | 31 | 1010.0 |
| 20260903235143 | 98 | 115 | 4.0 | 8.0 | 0.00 | 0.00 | 0.00 | 30 | 1010.2 |
| 20260903234143 | 97 | 359 | 1.0 | 4.0 | 0.00 | 0.00 | 0.00 | 31 | 1010.3 |
| 20260903233122 | 98 | 336 | 6.0 | 10.0 | 0.00 | 0.00 | 0.00 | 30 | 1010.5 |
| 20260903232143 | 98 | 338 | 7.0 | 13.0 | 0.00 | 0.00 | 0.00 | 30 | 1010.3 |
| 20260903231123 | 98 | 46 | 5.0 | 13.0 | 0.00 | 0.00 | 0.00 | 30 | 1010.4 |
| 20260903230122 | 99 | 336 | 4.0 | 6.0 | 0.00 | 0.00 | 0.00 | 30 | 1010.4 |
| 20260903225122 | 98 | 345 | 7.0 | 11.0 | 0.00 | 0.00 | 0.00 | 30 | 1010.7 |
| 20260903224122 | 98 | 303 | 6.0 | 11.0 | 0.00 | 0.00 | 0.00 | 30 | 1010.9 |
| 20260903223122 | 98 | 354 | 5.0 | 12.0 | 0.00 | 0.00 | 0.00 | 30 | 1010.9 |
| 20260903222122 | 98 | 327 | 5.0 | 9.0 | 0.00 | 0.00 | 0.00 | 30 | 1011.1 |
| 20260903221122 | 98 | 346 | 7.0 | 12.0 | 0.00 | 0.00 | 0.00 | 29 | 1011.3 |
| 20260903220123 | 98 | 238 | 2.0 | 6.0 | 0.00 | 0.00 | 0.00 | 30 | 1011.4 |
| 20260903215122 | 97 | 353 | 9.0 | 11.0 | 0.00 | 0.00 | 0.00 | 29 | 1011.5 |
| 20260903214124 | 98 | 288 | 5.0 | 12.0 | 0.00 | 0.00 | 0.00 | 29 | 1011.7 |
| 20260903213122 | 97 | 320 | 4.0 | 8.0 | 0.00 | 0.00 | 0.00 | 31 | 1011.8 |
| 20260903212122 | 97 | 335 | 7.0 | 15.0 | 0.00 | 0.00 | 0.00 | 30 | 1012.0 |
| 20260903211123 | 97 | 328 | 7.0 | 16.0 | 0.00 | 0.00 | 0.00 | 32 | 1012.2 |
| 20260903210122 | 97 | 338 | 5.0 | 11.0 | 0.00 | 0.00 | 0.00 | 33 | 1012.3 |
| 20260903205143 | 96 | 336 | 6.0 | 10.0 | 0.00 | 0.00 | 0.00 | 34 | 1012.5 |
| 20260903204122 | 97 | 334 | 9.0 | 13.0 | 0.00 | 0.00 | 0.00 | 34 | 1012.7 |
| 20260903203122 | 97 | 3 | 7.0 | 16.0 | 0.00 | 0.00 | 0.00 | 34 | 1012.7 |
| 20260903202144 | 97 | 41 | 5.0 | 12.0 | 0.00 | 0.00 | 0.00 | 35 | 1012.8 |
| 20260903201143 | 96 | 12 | 7.0 | 12.0 | 0.00 | 0.00 | 0.00 | 35 | 1012.9 |
| 20260903200122 | 95 | 14 | 7.0 | 13.0 | 0.00 | 0.00 | 0.00 | 36 | 1013.0 |
| 20260903195122 | 96 | 80 | 4.0 | 8.0 | 0.00 | 0.00 | 0.00 | 36 | 1013.1 |
| 20260903194122 | 94 | 340 | 7.0 | 12.0 | 0.00 | 0.00 | 0.00 | 38 | 1013.3 |
| 20260903193123 | 94 | 13 | 7.0 | 11.0 | 0.00 | 0.00 | 0.00 | 38 | 1013.4 |
| 20260903192122 | 93 | 323 | 6.0 | 10.0 | 0.00 | 0.00 | 0.00 | 39 | 1013.6 |
| 20260903191122 | 94 | 39 | 5.0 | 13.0 | 0.00 | 0.00 | 0.00 | 39 | 1013.6 |
| 20260903190143 | 94 | 90 | 5.0 | 11.0 | 0.00 | 0.00 | 0.00 | 40 | 1013.9 |
| 20260903185122 | 92 | 136 | 7.0 | 13.0 | 0.00 | 0.00 | 0.00 | 42 | 1014.0 |
| 20260903184123 | 93 | 26 | 6.0 | 12.0 | 0.00 | 0.00 | 0.00 | 41 | 1014.4 |
| 20260903183123 | 93 | 28 | 5.0 | 11.0 | 0.00 | 0.00 | 0.00 | 41 | 1014.5 |
| 20260903182235 | 93 | 45 | 5.0 | 11.0 | 0.00 | 0.00 | 0.00 | 42 | 1014.7 |
| 20260903181144 | 92 | 359 | 6.0 | 12.0 | 0.00 | 0.00 | 0.00 | 45 | 1014.7 |
| 20260903180123 | 92 | 37 | 4.0 | 9.0 | 0.00 | 0.00 | 0.00 | 44 | 1014.9 |
| 20260903175123 | 90 | 8 | 6.0 | 12.0 | 0.00 | 0.00 | 0.00 | 48 | 1015.1 |
| 20260903174123 | 92 | 25 | 7.0 | 12.0 | 0.00 | 0.00 | 0.00 | 47 | 1015.1 |
| 20260903173124 | 91 | 360 | 9.0 | 9.0 | 0.00 | 0.00 | 0.00 | 46 | 1015.1 |
| 20260903172124 | 90 | 63 | 5.0 | 11.0 | 0.00 | 0.00 | 0.00 | 48 | 1015.1 |
| 20260903171123 | 91 | 86 | 4.0 | 9.0 | 0.00 | 0.00 | 0.00 | 47 | 1015.2 |
| 20260903170123 | 90 | 35 | 6.0 | 11.0 | 0.00 | 0.00 | 0.00 | 50 | 1015.2 |
| 20260903165144 | 90 | 49 | 8.0 | 14.0 | 0.00 | 0.00 | 0.00 | 50 | 1015.2 |
| 20260903164123 | 90 | 57 | 5.0 | 9.0 | 0.00 | 0.00 | 0.00 | 50 | 1015.3 |
| 20260903163124 | 89 | 52 | 5.0 | 13.0 | 0.00 | 0.00 | 0.00 | 51 | 1015.2 |
| 20260903162123 | 89 | 49 | 5.0 | 9.0 | 0.00 | 0.00 | 0.00 | 51 | 1015.1 |
| 20260903161124 | 89 | 68 | 5.0 | 11.0 | 0.00 | 0.00 | 0.00 | 52 | 1015.3 |
| 20260903160124 | 88 | 83 | 6.0 | 11.0 | 0.00 | 0.00 | 0.00 | 52 | 1015.3 |
| 20260903155144 | 87 | 9 | 5.0 | 6.0 | 0.00 | 0.00 | 0.00 | 54 | 1015.4 |
| 20260903154123 | 87 | 72 | 4.0 | 9.0 | 0.00 | 0.00 | 0.00 | 55 | 1015.3 |
| 20260903153123 | 87 | 52 | 5.0 | 10.0 | 0.00 | 0.00 | 0.00 | 55 | 1015.3 |
| 20260903152124 | 86 | 35 | 5.0 | 10.0 | 0.00 | 0.00 | 0.00 | 57 | 1015.3 |
| 20260903151123 | 86 | 70 | 5.0 | 8.0 | 0.00 | 0.00 | 0.00 | 58 | 1015.4 |
| 20260903150123 | 85 | 54 | 4.0 | 7.0 | 0.00 | 0.00 | 0.00 | 59 | 1015.3 |
| 20260903145144 | 85 | 86 | 5.0 | 9.0 | 0.00 | 0.00 | 0.00 | 59 | 1015.3 |
| 20260903144123 | 85 | 62 | 5.0 | 8.0 | 0.00 | 0.00 | 0.00 | 60 | 1015.4 |
| 20260903143123 | 84 | 99 | 5.0 | 8.0 | 0.00 | 0.00 | 0.00 | 62 | 1015.4 |
| 20260903142123 | 84 | 43 | 7.0 | 10.0 | 0.00 | 0.00 | 0.00 | 62 | 1015.3 |
| 20260903141123 | 84 | 46 | 5.0 | 9.0 | 0.00 | 0.00 | 0.00 | 62 | 1015.2 |
| 20260903140123 | 83 | 53 | 4.0 | 8.0 | 0.00 | 0.00 | 0.00 | 62 | 1015.2 |
| 20260903135123 | 83 | 55 | 4.0 | 6.0 | 0.00 | 0.00 | 0.00 | 63 | 1015.0 |
| 20260903134123 | 82 | 107 | 2.0 | 4.0 | 0.00 | 0.00 | 0.00 | 64 | 1014.8 |
| 20260903133124 | 82 | 84 | 3.0 | 6.0 | 0.00 | 0.00 | 0.00 | 64 | 1014.7 |
| 20260903132123 | 81 | 7 | 1.0 | 4.0 | 0.00 | 0.00 | 0.00 | 65 | 1014.6 |
| 20260903131124 | 81 | 360 | 2.0 | 2.0 | 0.00 | 0.00 | 0.00 | 64 | 1014.5 |
| 20260903130123 | 81 | 3 | 2.0 | 3.0 | 0.00 | 0.00 | 0.00 | 64 | 1014.4 |
| 20260903125123 | 82 | 4 | 2.0 | 4.0 | 0.00 | 0.00 | 0.00 | 63 | 1014.4 |
| 20260903124144 | 82 | 16 | 2.0 | 4.0 | 0.00 | 0.00 | 0.00 | 63 | 1014.3 |
| 20260903123124 | 82 | 77 | 2.0 | 5.0 | 0.00 | 0.00 | 0.00 | 63 | 1014.2 |
| 20260903122123 | 82 | 2 | 2.0 | 3.0 | 0.00 | 0.00 | 0.00 | 62 | 1014.0 |
| 20260903121124 | 82 | 9 | 2.0 | 4.0 | 0.00 | 0.00 | 0.00 | 63 | 1014.0 |
| 20260903120123 | 81 | 69 | 1.0 | 3.0 | 0.00 | 0.00 | 0.00 | 64 | 1013.9 |
| 20260903115123 | 81 | 360 | 0.0 | 0.0 | 0.00 | 0.00 | 0.00 | 63 | 1014.0 |
| 20260903114144 | 81 | 71 | 0.0 | 1.0 | 0.00 | 0.00 | 0.00 | 62 | 1013.9 |
| 20260903113123 | 81 | 14 | 1.0 | 3.0 | 0.00 | 0.00 | 0.00 | 62 | 1013.7 |
| 20260903112144 | 82 | 360 | 0.0 | 1.0 | 0.00 | 0.00 | 0.00 | 61 | 1013.6 |
| 20260903111144 | 83 | 88 | 1.0 | 5.0 | 0.00 | 0.00 | 0.00 | 60 | 1013.6 |
| 20260903110123 | 83 | 14 | 2.0 | 4.0 | 0.00 | 0.00 | 0.00 | 59 | 1013.5 |
| 20260903105123 | 83 | 31 | 2.0 | 5.0 | 0.00 | 0.00 | 0.00 | 58 | 1013.5 |
| 20260903104123 | 84 | 20 | 3.0 | 5.0 | 0.00 | 0.00 | 0.00 | 58 | 1013.5 |